Torna al catalogo

YAOGAN 4 DEB

AttivoMilitarePO
NORAD 35575·DEBRIS·🇨🇳 China

Lanciato Dec 1, 2008 da Jiuquan Satellite Launch Center

Loading…

Prossimi Passaggi (prossime 24 ore)

TLE

AggiornatoSource: Space-Track

Epoca: Sep 13, 2026, 08:01 UTC

1 35575U 08061B   26256.33433370  .00001126  00000-0  32686-3 0  9995
2 35575  97.7667  31.9030 0206851 274.6149  83.1440 14.34471792920137

Traccia YAOGAN 4 DEB in tempo reale con AllMySat

Download on the App Store